Location: Bletchingley
(51.2333°N, 0.1000°W)
Time: 22:37:55
(UTC+00:00)

Okean 1 Rocket - Pass Details

Date: 18 September 2020
Orbit: 606 x 635 km, 82.5° (Epoch: 20 October)

Event Time Altitude Azimuth Distance (km) Brightness Sun altitude
Exits shadow 19:51:19 31° 123° (ESE) 1,119 3.8 -16.6°
Maximum altitude 19:52:27 36° 91° (E) 1,012 3.7 -16.8°
Drops below altitude 10° 19:56:34 10° 25° (NNE) 2,035 5.7 -17.4°
Sets 19:58:57 0° 17° (NNE) 2,948 6.7 -17.7°
